Location: San Antonio
(29.4240°N, 98.4930°W)
Time: 15:17:53
(UTC-05:00)

BlueWalker 3 - Pass Details

Date: 18 June 2024
Orbit: 480 x 492 km, 53.2° (Epoch: 11 July)

Event Time Altitude Azimuth Distance (km) Brightness Sun altitude
Rises 23:00:49 0° 266° (W) 2,533 6.0 -25.4°
Reaches altitude 10° 23:04:03 10° 296° (WNW) 1,653 5.4 -25.8°
Maximum altitude 23:05:46 13° 323° (NW) 1,494 5.3 -26.1°
Drops below altitude 10° 23:07:28 10° 351° (N) 1,654 5.3 -26.3°
Sets 23:10:43 0° 21° (NNE) 2,534 5.9 -26.7°
